Location: ?????
(30.2541°N, 31.0910°E)
Time: 03:36:56
(UTC+00:00)

ATLAS CENTAUR R/B - Pass Details

Date: 27 September 2022
Orbit: 442 x 677 km, 64.7° (Epoch: 29 November)

Event Time Altitude Azimuth Distance (km) Brightness Sun altitude
Exits shadow 00:10:03 - 93° (E) 2,873 5.5 -45.5°
Enters shadow 01:15:42 -55° 208° (SSW) 10,994 8.0 -32.9°
Maximum altitude 01:46:40 54° 114° (ESE) 806 2.3 -26.5°
